User: anonymous   Login
Location: Unspecified
(50.0830°N, 0.0000°E)
Time: 02:22:30
(UTC+00:00)
Language:

Envisat - Orbit

View from above orbital plane
View from above orbital plane
View from above satellite
View from above satellite

Ground track
Ground track

The orbit data is extracted from the following two-line orbital elements,

1 27386U 02009A   19346.78062134  .00000011  00000-0  17011-4 0  9997
2 27386  98.1409 358.6699 0001333  90.3070  82.7826 14.37965601931642
Epoch (UTC): 12 December 2019 18:44:05
Eccentricity: 0.0001333
inclination: 98.1409°
perigee height: 764 km
apogee height: 766 km
right ascension of ascending node: 358.6699°
argument of perigee: 90.3070°
revolutions per day: 14.37965601
mean anomaly at epoch: 82.7826°
orbit number at epoch: 93164

The dashed part of the orbit path shows where the satellite is in the earth's shadow,  

DLR